FW8568 Weather Reports


time (UTC)temp
C
wind
direction
speed
KPH
gust
KPH
rain 1hr
cm
rain 24hr
cm
rain mn
cm
humidity
%
barometer
mb
20260502130353 17 287 1.6 1.6 0.00 0.00 0.00 38 1012.0
20260502123335 17 284 1.6 3.2 0.00 0.00 0.00 37 1011.6
20260502122833 17 253 3.2 3.2 0.00 0.00 0.00 37 1011.5
20260502122328 17 316 1.6 3.2 0.00 0.00 0.00 38 1011.7
20260502121827 17 308 0.0 3.2 0.00 0.00 0.00 38 1011.5
20260502121324 18 287 1.6 3.2 0.00 0.00 0.00 37 1011.4
20260502120821 18 284 0.0 3.2 0.00 0.00 0.00 37 1011.3
20260502120317 18 284 0.0 3.2 0.00 0.00 0.00 38 1011.4
20260502115815 18 308 0.0 3.2 0.00 0.00 0.00 36 1011.4
20260502115312 18 254 1.6 3.2 0.00 0.00 0.00 35 1011.4
20260502114808 18 289 0.0 3.2 0.00 0.00 0.00 35 1011.3
20260502114305 18 298 0.0 3.2 0.00 0.00 0.00 37 1011.3
20260502113802 18 312 1.6 3.2 0.00 0.00 0.00 35 1011.3
20260502113300 18 271 0.0 1.6 0.00 0.00 0.00 36 1011.3
20260502112757 18 268 0.0 1.6 0.00 0.00 0.00 34 1011.4
20260502112255 18 279 1.6 1.6 0.00 0.00 0.00 35 1011.3
20260502111752 18 331 0.0 1.6 0.00 0.00 0.00 34 1011.3
20260502111249 19 290 1.6 1.6 0.00 0.00 0.00 34 1011.0
20260502110747 19 258 0.0 3.2 0.00 0.00 0.00 34 1011.2
20260502110244 19 284 0.0 1.6 0.00 0.00 0.00 33 1011.2
20260502105742 20 262 1.6 1.6 0.00 0.00 0.00 32 1010.9
20260502105238 20 283 1.6 1.6 0.00 0.00 0.00 32 1011.2
20260502104736 20 294 0.0 1.6 0.00 0.00 0.00 32 1011.4
20260502104233 20 258 0.0 0.0 0.00 0.00 0.00 33 1011.2
20260502103731 20 317 0.0 0.0 0.00 0.00 0.00 33 1011.2
20260502103228 20 284 0.0 1.6 0.00 0.00 0.00 32 1011.3
20260502102725 20 284 0.0 1.6 0.00 0.00 0.00 32 1011.2
20260502102222 21 324 0.0 1.6 0.00 0.00 0.00 32 1011.2
20260502101720 21 296 0.0 0.0 0.00 0.00 0.00 31 1011.0
20260502101218 21 282 0.0 1.6 0.00 0.00 0.00 31 1010.6
20260502100715 21 276 1.6 1.6 0.00 0.00 0.00 31 1010.9
20260502100214 21 276 1.6 3.2 0.00 0.00 0.00 30 1010.7
20260502091148 21 339 0.0 3.2 0.00 0.00 0.00 32 1010.4
20260502090645 21 295 0.0 3.2 0.00 0.00 0.00 31 1010.6
20260502090142 22 257 0.0 1.6 0.00 0.00 0.00 31 1010.4
20260502080104 21 283 4.8 4.8 0.00 0.00 0.00 32 1010.3
20260502071038 22 286 0.0 1.6 0.00 0.00 0.00 27 1009.6
20260502070535 22 279 0.0 1.6 0.00 0.00 0.00 26 1009.6
20260502070033 22 245 0.0 1.6 0.00 0.00 0.00 26 1009.6
20260502065532 23 325 0.0 0.0 0.00 0.00 0.00 25 1009.6
20260502065029 23 319 0.0 3.2 0.00 0.00 0.00 25 1009.4
20260502064527 23 70 0.0 0.0 0.00 0.00 0.00 24 1009.6
20260502064024 23 284 0.0 0.0 0.00 0.00 0.00 26 1009.7
20260502063522 23 232 0.0 0.0 0.00 0.00 0.00 25 1009.7
20260502063020 23 232 0.0 0.0 0.00 0.00 0.00 24 1009.7
20260502062516 23 232 0.0 0.0 0.00 0.00 0.00 23 1009.6
20260502062015 23 256 0.0 0.0 0.00 0.00 0.00 23 1009.5
20260502061512 23 104 0.0 0.0 0.00 0.00 0.00 23 1009.5
20260502061009 24 271 0.0 1.6 0.00 0.00 0.00 23 1009.4
20260502060503 24 118 0.0 1.6 0.00 0.00 0.00 22 1009.5
20260502060001 24 129 0.0 1.6 0.00 0.00 0.00 23 1009.4
20260502055458 25 144 0.0 1.6 0.00 0.00 0.00 23 1009.2
20260502054958 25 232 0.0 1.6 0.00 0.00 0.00 23 1009.5
20260502054455 25 312 0.0 1.6 0.00 0.00 0.00 22 1009.5
20260502053952 25 150 0.0 3.2 0.00 0.00 0.00 23 1009.3
20260502053449 24 94 1.6 1.6 0.00 0.00 0.00 23 1009.2
20260502052947 23 245 0.0 0.0 0.00 0.00 0.00 24 1009.2
20260502052445 23 245 0.0 0.0 0.00 0.00 0.00 25 1009.2
20260502051943 23 77 0.0 0.0 0.00 0.00 0.00 27 1009.2
20260502051441 23 270 0.0 0.0 0.00 0.00 0.00 26 1009.1
20260502050938 23 270 0.0 0.0 0.00 0.00 0.00 27 1009.2
20260502050434 23 270 0.0 0.0 0.00 0.00 0.00 28 1009.1
20260502045931 24 270 0.0 0.0 0.00 0.00 0.00 25 1009.1
20260502045428 24 270 0.0 0.0 0.00 0.00 0.00 24 1008.9
20260502044925 24 270 0.0 0.0 0.00 0.00 0.00 24 1009.2
20260502044421 25 270 0.0 0.0 0.00 0.00 0.00 24 1009.0
20260502043918 25 250 0.0 0.0 0.00 0.00 0.00 24 1009.0
20260502043416 25 359 0.0 0.0 0.00 0.00 0.00 24 1009.1
20260502042915 25 359 0.0 0.0 0.00 0.00 0.00 24 1009.1
20260502042413 25 227 0.0 0.0 0.00 0.00 0.00 23 1009.0
20260502041910 25 349 0.0 1.6 0.00 0.00 0.00 24 1008.9
20260502041408 26 40 0.0 0.0 0.00 0.00 0.00 22 1009.0
20260502040904 26 40 0.0 0.0 0.00 0.00 0.00 22 1008.9
20260502040401 26 324 0.0 0.0 0.00 0.00 0.00 21 1008.8
20260502035857 26 324 0.0 0.0 0.00 0.00 0.00 21 1008.5
20260502035354 26 261 0.0 0.0 0.00 0.00 0.00 21 1008.9
20260502034851 26 232 0.0 0.0 0.00 0.00 0.00 21 1008.4
20260502034350 26 119 0.0 0.0 0.00 0.00 0.00 21 1008.6
20260502033848 26 245 0.0 0.0 0.00 0.00 0.00 21 1008.5
20260502033345 27 245 0.0 0.0 0.00 0.00 0.00 21 1008.2
20260502032841 27 359 0.0 0.0 0.00 0.00 0.00 21 1008.4
20260502032337 27 90 0.0 0.0 0.00 0.00 0.00 22 1008.5
20260502031835 27 87 0.0 0.0 0.00 0.00 0.00 22 1008.3
20260502031334 27 144 0.0 0.0 0.00 0.00 0.00 22 1008.1
20260502030832 27 144 0.0 1.6 0.00 0.00 0.00 21 1008.3
20260502030330 28 139 0.0 1.6 0.00 0.00 0.00 21 1008.2
20260502025826 28 157 0.0 0.0 0.00 0.00 0.00 21 1007.8
20260502025324 28 96 0.0 0.0 0.00 0.00 0.00 21 1007.8
20260502024822 28 104 0.0 3.2 0.00 0.00 0.00 20 1008.2
20260502024319 28 104 0.0 3.2 0.00 0.00 0.00 21 1007.8
20260502023817 28 330 0.0 1.6 0.00 0.00 0.00 21 1007.8
20260502023315 29 77 0.0 3.2 0.00 0.00 0.00 21 1007.6
20260502022812 29 98 0.0 3.2 0.00 0.00 0.00 20 1007.8
20260502022308 29 73 0.0 3.2 0.00 0.00 0.00 21 1008.0
20260502021805 30 75 1.6 3.2 0.00 0.00 0.00 20 1007.9
20260502021303 30 104 0.0 3.2 0.00 0.00 0.00 20 1007.6
20260502020800 30 77 0.0 3.2 0.00 0.00 0.00 20 1007.5
20260502020257 30 71 1.6 4.8 0.00 0.00 0.00 20 1007.6
20260502015754 31 87 1.6 3.2 0.00 0.00 0.00 19 1007.6
20260502015251 31 79 1.6 3.2 0.00 0.00 0.00 19 1007.4
20260502014748 31 74 4.8 4.8 0.00 0.00 0.00 19 1007.8
20260502014245 31 86 4.8 4.8 0.00 0.00 0.00 19 1007.5
20260502013741 31 77 4.8 6.4 0.00 0.00 0.00 19 1007.3
20260502013237 31 71 1.6 3.2 0.00 0.00 0.00 19 1007.6
20260502012734 31 85 1.6 3.2 0.00 0.00 0.00 20 1007.4
20260502012232 31 63 3.2 3.2 0.00 0.00 0.00 20 1007.3
20260502011729 31 46 1.6 4.8 0.00 0.00 0.00 19 1007.6
20260502011224 31 44 1.6 8.0 0.00 0.00 0.00 20 1007.5
20260502010723 32 104 4.8 6.4 0.00 0.00 0.00 19 1007.5
20260502010218 33 113 3.2 8.0 0.00 0.00 0.00 19 1007.5
20260502005716 32 92 4.8 8.0 0.00 0.00 0.00 19 1007.5
20260502005214 33 85 4.8 11.3 0.00 0.00 0.00 19 1007.6
20260502004709 33 103 3.2 8.0 0.00 0.00 0.00 19 1007.5
20260502004206 33 78 1.6 8.0 0.00 0.00 0.00 19 1007.8
20260502003704 33 84 4.8 9.7 0.00 0.00 0.00 19 1007.6
20260502003201 33 109 4.8 8.0 0.00 0.00 0.00 19 1007.8
20260502002657 33 80 0.0 9.7 0.00 0.00 0.00 19 1007.5
20260502002155 33 113 6.4 8.0 0.00 0.00 0.00 19 1007.9
20260502001652 33 76 4.8 6.4 0.00 0.00 0.00 19 1007.5
20260502001149 33 91 4.8 8.0 0.00 0.00 0.00 19 1007.8
20260502000647 33 95 4.8 8.0 0.00 0.00 0.00 19 1007.6
20260502000145 33 110 4.8 8.0 0.00 0.00 0.00 20 1007.8
20260501235641 32 112 6.4 9.7 0.00 0.00 0.00 20 1007.5
20260501235136 33 90 3.2 8.0 0.00 0.00 0.00 20 1007.8
20260501234632 33 89 4.8 6.4 0.00 0.00 0.00 19 1007.9
20260501234130 33 77 4.8 11.3 0.00 0.00 0.00 19 1007.8
20260501233628 33 100 4.8 6.4 0.00 0.00 0.00 20 1007.6
20260501233125 33 84 3.2 8.0 0.00 0.00 0.00 20 1008.1
20260501232620 33 116 6.4 8.0 0.00 0.00 0.00 21 1008.0
20260501232118 33 92 4.8 8.0 0.00 0.00 0.00 21 1008.0
20260501231616 33 100 6.4 9.7 0.00 0.00 0.00 21 1007.9
20260501231114 32 102 4.8 8.0 0.00 0.00 0.00 20 1007.8
20260501230612 32 139 3.2 9.7 0.00 0.00 0.00 21 1008.1
20260501230110 32 67 4.8 11.3 0.00 0.00 0.00 20 1007.9
20260501225607 32 98 6.4 12.9 0.00 0.00 0.00 20 1008.0
20260501225103 32 88 8.0 9.7 0.00 0.00 0.00 21 1008.1
20260501224601 32 103 4.8 8.0 0.00 0.00 0.00 21 1008.1
20260501224057 32 358 4.8 11.3 0.00 0.00 0.00 21 1008.2
20260501223554 32 78 4.8 9.7 0.00 0.00 0.00 23 1008.4
20260501223050 32 104 6.4 9.7 0.00 0.00 0.00 22 1008.6
20260501222547 32 113 4.8 14.5 0.00 0.00 0.00 23 1008.5
20260501222044 31 100 4.8 8.0 0.00 0.00 0.00 23 1008.5
20260501221540 32 137 4.8 9.7 0.00 0.00 0.00 23 1008.6
20260501221038 32 67 1.6 8.0 0.00 0.00 0.00 23 1008.6
20260501220536 31 94 8.0 12.9 0.00 0.00 0.00 23 1008.9
20260501220032 31 114 4.8 12.9 0.00 0.00 0.00 24 1008.9
20260501215528 31 94 9.7 11.3 0.00 0.00 0.00 24 1008.6
20260501215024 31 122 9.7 11.3 0.00 0.00 0.00 23 1008.8
20260501214519 31 96 0.0 8.0 0.00 0.00 0.00 24 1008.9
20260501214015 31 103 6.4 8.0 0.00 0.00 0.00 23 1009.0
20260501213513 31 96 6.4 6.4 0.00 0.00 0.00 23 1008.7
20260501213009 31 72 4.8 8.0 0.00 0.00 0.00 24 1009.2
20260501212504 30 98 8.0 9.7 0.00 0.00 0.00 24 1009.2
20260501212002 31 119 8.0 9.7 0.00 0.00 0.00 23 1009.2
20260501211459 31 154 3.2 6.4 0.00 0.00 0.00 23 1009.4
20260501210956 31 62 0.0 8.0 0.00 0.00 0.00 24 1009.5
20260501210452 30 95 1.6 3.2 0.00 0.00 0.00 25 1009.5
20260501205949 31 120 4.8 9.7 0.00 0.00 0.00 24 1009.6
20260501205446 30 122 4.8 8.0 0.00 0.00 0.00 24 1009.5
20260501204944 30 108 6.4 6.4 0.00 0.00 0.00 25 1009.7
20260501204439 30 77 3.2 4.8 0.00 0.00 0.00 26 1009.8
20260501203936 30 111 3.2 4.8 0.00 0.00 0.00 25 1009.9
20260501203433 30 306 1.6 4.8 0.00 0.00 0.00 26 1009.9
20260501202930 30 119 1.6 6.4 0.00 0.00 0.00 26 1010.1
20260501202427 30 97 3.2 8.0 0.00 0.00 0.00 26 1010.1
20260501201923 30 139 0.0 3.2 0.00 0.00 0.00 27 1009.8
20260501201420 28 138 4.8 4.8 0.00 0.00 0.00 26 1010.0
20260501200917 30 82 4.8 8.0 0.00 0.00 0.00 27 1010.0
20260501200414 29 115 3.2 11.3 0.00 0.00 0.00 26 1010.0
20260501195912 28 226 4.8 4.8 0.00 0.00 0.00 28 1010.2
20260501195408 28 118 4.8 11.3 0.00 0.00 0.00 28 1010.2
20260501194904 28 108 3.2 8.0 0.00 0.00 0.00 27 1010.6
20260501194400 30 88 1.6 3.2 0.00 0.00 0.00 28 1010.3
20260501193856 29 92 0.0 3.2 0.00 0.00 0.00 28 1010.4
20260501193355 28 85 1.6 3.2 0.00 0.00 0.00 28 1010.5
20260501192852 28 114 3.2 8.0 0.00 0.00 0.00 28 1010.7
20260501192349 28 89 1.6 6.4 0.00 0.00 0.00 28 1010.7
20260501191846 28 32 0.0 8.0 0.00 0.00 0.00 27 1010.8
20260501191343 28 82 4.8 9.7 0.00 0.00 0.00 28 1010.9
20260501190840 28 296 1.6 4.8 0.00 0.00 0.00 27 1011.0
20260501190336 28 73 1.6 1.6 0.00 0.00 0.00 29 1011.3
20260501185831 27 75 0.0 4.8 0.00 0.00 0.00 29 1011.3
20260501185327 27 114 4.8 8.0 0.00 0.00 0.00 29 1011.4
20260501184823 27 127 4.8 6.4 0.00 0.00 0.00 28 1011.5
20260501184319 27 149 3.2 8.0 0.00 0.00 0.00 28 1011.4
20260501183815 27 65 1.6 4.8 0.00 0.00 0.00 28 1011.4
20260501183312 27 222 0.0 4.8 0.00 0.00 0.00 30 1011.6
20260501182808 27 124 1.6 6.4 0.00 0.00 0.00 29 1011.6
20260501182306 27 75 1.6 8.0 0.00 0.00 0.00 29 1011.7
20260501181802 27 107 0.0 4.8 0.00 0.00 0.00 29 1011.6
20260501181300 27 76 1.6 6.4 0.00 0.00 0.00 29 1012.0
20260501180757 27 35 0.0 4.8 0.00 0.00 0.00 29 1011.8
20260501180253 27 273 1.6 4.8 0.00 0.00 0.00 30 1012.2
20260501175750 27 117 1.6 4.8 0.00 0.00 0.00 29 1011.9
20260501175247 27 99 4.8 4.8 0.00 0.00 0.00 30 1012.0
20260501174743 27 103 0.0 4.8 0.00 0.00 0.00 30 1012.2
20260501174241 27 120 3.2 8.0 0.00 0.00 0.00 30 1012.1
20260501173739 27 67 0.0 3.2 0.00 0.00 0.00 31 1012.2
20260501173235 26 137 3.2 6.4 0.00 0.00 0.00 32 1012.1
20260501172731 26 122 0.0 4.8 0.00 0.00 0.00 31 1012.1
20260501172227 27 111 4.8 6.4 0.00 0.00 0.00 31 1012.3
20260501171723 28 324 0.0 3.2 0.00 0.00 0.00 30 1012.3
20260501171220 27 136 3.2 4.8 0.00 0.00 0.00 30 1012.1
20260501170717 26 132 0.0 3.2 0.00 0.00 0.00 32 1012.2
20260501170213 27 111 3.2 4.8 0.00 0.00 0.00 32 1012.2
20260501165711 26 156 0.0 3.2 0.00 0.00 0.00 32 1012.2
20260501165208 26 85 3.2 6.4 0.00 0.00 0.00 32 1012.3
20260501164706 26 121 3.2 9.7 0.00 0.00 0.00 32 1012.2
20260501164203 27 318 0.0 4.8 0.00 0.00 0.00 31 1012.3
20260501163659 26 119 0.0 1.6 0.00 0.00 0.00 34 1012.3
20260501163156 25 147 1.6 6.4 0.00 0.00 0.00 34 1012.2
20260501162652 26 111 3.2 6.4 0.00 0.00 0.00 33 1012.2
20260501162149 25 144 3.2 4.8 0.00 0.00 0.00 33 1012.3
20260501161646 25 126 1.6 6.4 0.00 0.00 0.00 34 1012.4
20260501161143 25 131 1.6 4.8 0.00 0.00 0.00 34 1012.4
20260501160640 26 155 3.2 3.2 0.00 0.00 0.00 33 1012.0
20260501160137 25 84 0.0 3.2 0.00 0.00 0.00 34 1012.0
20260501155634 25 118 3.2 6.4 0.00 0.00 0.00 35 1012.0
20260501155131 26 143 1.6 6.4 0.00 0.00 0.00 33 1012.0
20260501154628 25 100 3.2 6.4 0.00 0.00 0.00 34 1011.9
20260501154125 26 72 1.6 4.8 0.00 0.00 0.00 33 1012.1
20260501153623 25 156 0.0 4.8 0.00 0.00 0.00 35 1012.2
20260501153119 25 116 3.2 9.7 0.00 0.00 0.00 34 1011.9
20260501152616 26 204 1.6 3.2 0.00 0.00 0.00 33 1012.0
20260501152113 25 198 3.2 4.8 0.00 0.00 0.00 34 1011.8
20260501151610 25 83 4.8 6.4 0.00 0.00 0.00 35 1012.0
20260501151107 24 171 0.0 4.8 0.00 0.00 0.00 36 1011.7
20260501150602 24 107 3.2 6.4 0.00 0.00 0.00 36 1011.8
20260501150059 25 154 0.0 1.6 0.00 0.00 0.00 35 1011.6
20260501145555 24 144 0.0 3.2 0.00 0.00 0.00 37 1011.7
20260501145053 24 311 0.0 4.8 0.00 0.00 0.00 37 1011.6
20260501144549 24 108 1.6 1.6 0.00 0.00 0.00 36 1011.4
20260501144044 23 19 0.0 4.8 0.00 0.00 0.00 37 1011.5
20260501143541 23 125 0.0 4.8 0.00 0.00 0.00 37 1011.5
20260501143038 22 43 0.0 4.8 0.00 0.00 0.00 38 1011.3